CAPE
42 516 2489 1891 1946 1937 2126 1845 1658 1688 1434 1914 1864 1664 1488 1402 1321 1304 1335 1369 1467 1408 1378 1102 979 941 1273 1166 1089 1522 1362 1255 1031 909 755 489 750 1088 1275 1114 1279 1497 1994
264 1054 2500 2155 1858 1864 1947 2163 1770 1950 1530 1686 1896 1986 1889 1501 1398 1588 1550 1582 1636 1599 1519 1522 1540 1475 1478 1490 1541 1320 1280 1558 1208 928 731 609 1598 1615 1404 1324 1448 1671 2056
763 1330 1855 2358 1827 1858 2030 2234 1861 1901 1732 1563 1840 1661 1761 1756 1234 906 1330 1423 1739 1600 1407 1590 1661 1373 1446 1319 1193 1191 1352 1299 1168 1196 1267 1042 1021 1490 1630 1497 1306 1642 1824
1010 1294 1376 2441 2242 1787 2114 2056 2013 2002 1736 1628 1711 1783 1629 1820 1558 803 1402 1391 1548 1509 1618 1190 1550 1493 930 747 799 1158 1138 1240 879 355 652 812 839 1385 1459 1608 1704 1694 1606
1195 1233 1535 2216 1979 1756 1837 2114 2284 2332 1934 1669 1625 1572 1464 1774 951 500 1594 1561 1363 1439 893 1320 1452 983 669 1065 1167 787 901 1049 787 726 276 276 407 867 1394 1489 1656 1712 1736
1045 1136 1812 2012 1915 1968 2177 2011 1860 1753 1808 1804 1647 1706 1804 677 647 1139 1662 1505 1542 1409 1231 925 977 1417 1358 1080 1234 1021 1290 741 571 73 290 224 553 1312 1027 1420 1390 1497 1564
1100 1188 1630 2402 2047 2195 2037 1834 1763 1813 1731 1835 1820 1494 1247 1464 1849 1434 1695 1720 1540 1520 1288 1190 487 415 1091 1132 827 1081 1394 769 16 71 198 227 287 1475 1065 1092 1233 1340 1296
1151 1451 1647 2183 2022 1933 1893 1766 1750 1913 1676 1818 1918 1675 891 1726 1632 1666 1720 1558 1450 1304 1197 1361 1159 1076 1114 728 800 778 864 613 129 117 74 120 534 1052 1238 1234 1370 1232 1145
1348 1504 1537 1719 1648 1884 2014 1850 2158 1789 1836 1867 1881 2016 1480 1695 2175 1745 1502 1454 1073 943 1456 1132 1083 1006 1124 793 801 726 874 550 32 68 39 61 324 357 962 983 945 1024 951
1464 1582 1543 1467 1589 1526 1472 1739 1904 1712 1871 2010 2158 2077 1720 1469 1525 1811 1783 1487 1409 967 1113 1420 1214 1001 1034 987 932 1045 515 731 0 4 9 0 355 433 312 218 366 844 986
1316 1106 1369 1305 1212 1232 1178 1590 1964 1612 1931 1807 2223 2065 2061 937 1045 1277 1666 1738 1496 1176 1065 923 792 975 1135 1170 1235 1277 1167 171 4 0 0 87 283 287 167 266 136 628 752
702 1138 1308 1269 1081 1146 1537 1389 1114 940 1365 1456 1430 1234 1322 715 742 1247 1597 1541 1626 1532 1464 1524 1362 1451 1334 439 434 1001 467 122 101 15 0 2 33 370 371 240 141 353 666
459 948 1358 1270 1022 1003 1437 1168 681 513 1105 955 814 829 1030 912 890 1161 888 1026 894 1518 799 1024 919 861 1000 467 252 240 222 170 79 70 81 110 158 414 537 378 226 160 333
578 826 1234 1104 809 642 778 1038 670 269 467 747 695 548 823 729 642 617 724 826 636 462 570 436 191 150 268 305 218 232 225 171 155 87 99 447 539 724 873 582 413 242 212
644 902 892 920 701 568 842 837 768 226 214 356 585 512 340 531 548 316 364 568 627 492 464 444 417 396 266 361 449 232 248 10 176 232 114 413 739 1143 1247 921 762 503 414
568 793 691 981 737 532 746 691 744 313 64 24 369 656 197 96 401 457 353 429 485 267 390 425 261 341 172 216 403 422 259 37 162 136 96 187 902 1289 1460 1255 946 585 523
517 725 746 1059 805 595 641 578 527 389 238 0 131 355 340 108 279 309 433 571 394 509 311 204 279 239 269 373 431 382 63 36 77 55 52 130 224 1200 1796 1742 826 508 422
474 596 879 1203 773 606 493 356 303 311 517 181 119 193 196 170 320 545 801 729 776 631 706 792 674 448 443 302 0 0 19 0 0 0 3 163 678 381 599 1403 1404 148 81
474 576 843 981 659 605 266 129 254 425 374 529 182 141 112 461 485 706 631 549 483 308 355 766 1078 818 509 56 0 0 0 0 0 38 94 179 89 277 523 408 814 13 47
463 554 702 743 513 432 145 32 135 268 128 178 199 207 274 494 816 815 715 797 611 458 549 864 882 756 891 725 597 163 0 0 0 0 0 0 1 29 10 17 414 407 387
289 497 524 480 464 225 35 23 21 221 583 554 458 299 620 705 841 810 791 842 787 746 720 1007 1063 1182 860 629 258 516 156 0 0 0 0 0 60 93 92 107 55 415 764
290 397 328 307 317 187 215 5 0 163 607 608 645 606 665 973 1215 1189 1320 1241 1085 978 1034 1149 1109 1113 846 964 917 227 338 109 217 572 414 362 385 235 350 554 596 573 520
323 331 309 233 228 326 125 0 36 381 583 531 811 1061 987 895 1366 1625 1833 1366 1116 1029 1043 1092 1015 1166 1277 928 1117 733 558 404 331 234 516 452 239 212 224 1110 1081 789 410
242 324 363 291 170 281 71 28 209 178 615 644 588 1187 1244 974 1241 1297 1211 1358 1387 1266 1172 1281 1177 1120 1245 1373 1143 1136 456 508 688 828 489 460 315 320 172 1147 1144 860 462
69 272 361 296 213 297 147 47 168 237 290 493 714 908 1127 983 875 1188 1046 1226 1458 1077 1086 1474 1573 1609 1385 1594 1402 1406 1087 709 595 789 772 841 464 72 185 796 904 762 614
102 153 267 336 231 279 185 51 96 458 627 712 864 1044 1076 1095 1403 1188 1517 1438 1489 1288 1174 1337 1373 1739 1621 1866 1906 1537 1458 1337 962 908 756 446 487 33 118 313 908 929 776
CIN
-281 -48 -0 -0 -0 -0 -0 -0 -0 -0 -0 -0 -0 -0 -0 -0 -0 -0 -0 -0 -0 -0 -0 -0 -0 -0 -0 -0 -0 -0 -1 -0 -1 -16 -29 -69 -46 -45 -43 -19 -1 -4 -4
-200 -15 -0 -0 -0 -1 -0 -0 -0 -0 -0 -0 -0 -0 -0 -0 -0 -0 -0 -0 -0 -0 -0 -0 -0 -0 -0 -0 -0 -0 -0 -0 -0 -0 -9 -28 -0 -0 -0 -0 -0 -5 -0
-96 -4 -1 -0 -0 -0 -0 -0 -0 -0 -0 -0 -0 -0 -0 -0 -0 -0 -0 -0 -0 -0 -0 -0 -0 -0 -0 -0 -0 -0 -0 -0 -0 -0 -0 -6 -4 -0 -0 -0 -0 -0 -2
-81 -19 -6 -0 -0 -0 -0 -0 -0 -0 -0 -0 -0 -0 -0 -0 -0 -0 -0 -0 -0 -0 -0 -0 -0 -0 -0 -0 -0 -0 -0 -0 -0 -17 -15 -12 -1 -0 -3 -0 -0 -0 -4
-55 -45 -8 -0 -0 -0 -0 -0 -0 -0 -0 -0 -0 -0 -0 -0 -2 -1 -0 -0 -0 -0 -0 -0 -0 -0 -0 -0 -0 -0 -3 -10 -12 -18 -52 -50 -24 -0 -0 -0 -0 -0 -0
-97 -70 -1 -0 -0 -0 -0 -0 -0 -0 -0 -0 -0 -0 -0 -11 -3 -0 -0 -0 -0 -0 -0 -0 -0 -0 -0 -0 -0 -0 -5 -9 -28 -146 -72 -72 -38 -0 -1 -0 -0 -0 -0
-95 -60 -3 -0 -0 -0 -0 -0 -0 -0 -0 -0 -0 -0 -0 -0 -0 -0 -0 -0 -0 -0 -0 -0 -7 -10 -0 -0 -0 -0 -3 -13 -177 -114 -66 -50 -55 -0 -0 -0 -0 -0 -0
-118 -47 -15 -0 -0 -0 -0 -0 -0 -0 -0 -0 -0 -0 -2 -0 -0 -0 -0 -0 -0 -0 -0 -0 -0 -0 -1 -2 -0 -3 -14 -13 -58 -64 -82 -64 -34 -4 -0 -0 -0 -0 -0
-92 -61 -43 -15 -7 -0 -0 -0 -0 -0 -0 -0 -0 -0 -0 -0 -0 -0 -0 -0 -0 -0 -0 -0 -0 -2 -0 -4 -4 -12 -6 -10 -84 -69 -79 -86 -25 -16 -1 -3 -0 -0 -0
-74 -48 -55 -47 -26 -26 -10 -1 -0 -0 -0 -0 -0 -0 -0 -0 -0 -0 -0 -0 -0 -0 -0 -0 -0 -5 -3 -1 -0 -0 -4 -7 -0 -102 -127 -4 -16 -6 -9 -10 -0 -0 -0
-68 -98 -67 -65 -73 -68 -57 -18 -1 -1 -0 -0 -0 -0 -0 -32 -18 -5 -3 -0 -0 -0 -0 -4 -4 -0 -0 -0 -0 -0 -0 -68 -31 -0 -0 -51 -12 -4 -5 -4 -5 -0 -0
-189 -109 -80 -80 -103 -90 -32 -44 -60 -62 -20 -15 -21 -21 -26 -71 -62 -27 -4 -5 -0 -0 -1 -0 -6 -6 -5 -53 -68 -16 -43 -80 -82 -50 -0 -121 -67 -2 -1 -4 -5 -1 -0
-301 -155 -90 -96 -120 -119 -55 -95 -147 -162 -63 -71 -86 -82 -56 -74 -69 -54 -70 -65 -78 -31 -72 -46 -46 -59 -53 -72 -109 -121 -114 -115 -141 -157 -128 -71 -53 -8 -0 -0 -1 -3 -2
-289 -197 -126 -129 -174 -191 -153 -113 -165 -242 -165 -117 -123 -125 -99 -110 -110 -115 -100 -95 -105 -116 -97 -117 -148 -167 -154 -143 -135 -138 -142 -152 -133 -178 -192 -45 -11 -4 -3 -9 -0 -0 -4
-263 -197 -189 -168 -205 -215 -151 -151 -159 -275 -263 -197 -137 -142 -174 -137 -133 -164 -149 -129 -122 -124 -131 -135 -129 -160 -165 -171 -156 -147 -127 -59 -152 -137 -202 -83 -29 -5 -0 -3 -0 -0 -0
-264 -218 -227 -169 -209 -241 -191 -191 -175 -256 -350 -210 -189 -137 -217 -236 -161 -156 -161 -149 -153 -187 -169 -161 -171 -198 -200 -221 -182 -151 -131 -249 -207 -218 -268 -209 -61 -32 -9 -1 -0 -0 -0
-260 -225 -209 -174 -199 -249 -224 -223 -213 -232 -240 -0 -265 -189 -203 -240 -178 -172 -169 -135 -171 -179 -202 -218 -213 -233 -233 -219 -143 -132 -182 -340 -332 -355 -363 -271 -228 -92 -36 -20 -0 -42 -0
-221 -242 -199 -156 -214 -243 -255 -279 -269 -250 -163 -254 -271 -242 -231 -214 -182 -153 -122 -127 -139 -176 -161 -142 -153 -172 -192 -234 -0 -0 -398 -124 -0 -0 -171 -260 -156 -181 -148 -45 -2 -4 -58
-230 -234 -218 -192 -228 -239 -319 -364 -290 -200 -207 -160 -241 -259 -251 -169 -174 -139 -156 -169 -184 -218 -203 -136 -109 -128 -184 -218 -0 -0 -0 -0 -0 -343 -283 -239 -302 -249 -177 -146 -38 -63 -125
-237 -243 -248 -212 -234 -264 -351 -422 -310 -242 -289 -282 -274 -271 -233 -165 -117 -134 -161 -144 -176 -209 -177 -146 -139 -139 -134 -176 -200 -323 -0 -0 -0 -0 -0 -0 -21 -398 -99 -67 -122 -57 -31
-291 -266 -258 -252 -286 -331 -437 -382 -402 -241 -149 -224 -232 -255 -191 -154 -131 -147 -162 -154 -182 -169 -159 -143 -138 -107 -138 -229 -302 -206 -336 -0 -0 -0 -0 -0 -395 -332 -314 -277 -313 -134 -47
-350 -309 -330 -307 -350 -358 -305 -77 -0 -280 -161 -203 -237 -210 -180 -145 -128 -146 -127 -121 -150 -170 -164 -146 -148 -109 -157 -175 -126 -309 -170 -224 -264 -220 -278 -280 -247 -302 -210 -179 -181 -142 -116
-382 -368 -371 -369 -391 -326 -434 -0 -235 -275 -218 -204 -178 -163 -146 -153 -116 -117 -104 -118 -149 -197 -171 -161 -161 -127 -86 -170 -163 -178 -171 -152 -286 -307 -187 -237 -308 -322 -304 -155 -151 -143 -146
-403 -385 -363 -367 -435 -370 -531 -495 -322 -311 -178 -177 -168 -130 -129 -157 -138 -134 -138 -146 -138 -169 -175 -147 -161 -150 -140 -80 -145 -168 -298 -241 -136 -96 -214 -226 -262 -239 -284 -146 -146 -157 -178
-415 -377 -364 -379 -420 -334 -421 -456 -370 -315 -261 -223 -175 -127 -140 -168 -168 -141 -161 -157 -134 -188 -201 -135 -105 -102 -143 -93 -95 -95 -129 -216 -241 -151 -119 -129 -227 -316 -334 -210 -171 -186 -195
-360 -393 -385 -394 -417 -374 -409 -504 -424 -262 -199 -200 -154 -129 -150 -173 -116 -159 -127 -132 -132 -165 -194 -165 -147 -115 -117 -76 -76 -104 -84 -72 -127 -137 -159 -199 -160 -229 -338 -284 -163 -159 -186
Wind_Speed
7 8 13 14 13 12 13 15 15 16 16 16 17 17 17 16 15 14 13 13 13 12 11 10 9 8 7 7 7 7 7 8 9 8 7 7 8 8 10 11 14 9 15
13 10 15 14 13 12 12 14 13 15 15 15 16 14 16 15 14 13 13 12 13 12 11 10 9 9 9 9 8 10 9 10 10 10 9 8 10 10 10 12 12 9 14
15 11 11 14 14 13 13 14 13 14 14 13 14 13 12 13 14 12 12 11 10 12 10 10 9 10 9 8 8 9 10 8 10 11 11 3 4 12 11 12 12 14 14
14 10 10 13 14 14 14 14 14 14 13 13 12 12 11 12 12 12 11 12 9 9 9 8 9 9 8 8 8 9 9 9 10 10 4 3 4 13 13 14 13 13 13
11 8 10 15 15 14 14 13 12 14 13 13 12 10 10 10 10 11 10 12 10 9 7 7 7 8 8 7 7 7 9 8 7 5 2 3 2 9 11 13 14 13 13
9 7 13 16 16 15 14 15 13 13 12 13 12 11 11 11 11 12 10 12 9 9 6 8 8 8 9 8 7 6 7 6 5 2 4 5 4 10 12 12 12 12 13
10 8 11 15 15 15 14 14 14 13 12 13 12 12 11 11 11 11 10 10 9 8 8 8 7 7 7 7 7 5 6 6 3 2 3 6 5 10 12 13 13 12 12
13 10 9 15 15 15 15 15 14 13 13 13 13 12 11 9 11 10 10 9 9 8 7 8 7 7 6 6 6 6 4 7 4 3 3 3 9 14 14 14 15 14 14
11 9 8 8 13 16 14 14 13 13 13 13 12 11 11 10 9 9 9 8 8 8 8 8 7 7 6 6 6 7 7 8 5 3 3 2 11 14 13 15 15 14 15
9 8 5 5 6 6 7 14 14 14 13 12 12 12 11 11 10 9 8 7 7 7 6 7 7 8 7 8 8 8 8 8 5 5 4 3 9 11 13 12 14 15 15
7 5 5 5 6 6 6 8 12 13 12 12 10 11 9 3 4 5 6 6 7 7 7 7 6 8 9 9 10 11 12 3 5 3 2 7 10 12 12 10 13 14 15
10 8 6 5 6 6 6 4 5 5 4 4 4 4 3 4 3 4 5 8 8 8 8 8 8 10 9 4 3 9 1 3 4 4 4 12 11 14 13 13 13 15 16
13 9 9 7 6 6 6 3 3 2 3 3 5 5 4 3 3 3 2 3 2 7 1 4 4 3 4 4 4 3 4 3 3 3 8 16 17 18 17 17 16 18 18
12 11 11 9 7 6 3 4 4 3 3 3 4 5 4 3 3 3 3 3 3 2 3 4 2 4 5 5 4 5 4 2 2 3 5 16 20 21 20 20 19 19 19
13 12 12 11 9 7 5 4 4 4 4 3 4 5 4 3 4 3 4 3 3 3 3 4 4 5 4 5 5 4 3 2 4 2 3 14 20 21 21 18 20 20 19
13 13 13 13 11 8 6 6 5 4 4 4 4 5 6 4 4 4 4 4 4 4 4 3 4 4 4 4 6 3 3 4 2 3 2 4 16 18 20 18 20 20 20
14 13 14 13 12 11 9 7 5 5 5 4 4 6 6 5 6 4 4 3 4 4 5 2 4 4 4 4 5 5 1 2 2 4 4 4 7 15 19 17 16 15 16
13 15 14 12 12 11 8 7 5 4 4 5 5 4 6 6 6 5 4 4 4 2 2 3 4 3 3 3 2 3 4 4 4 4 4 5 4 4 6 14 13 12 4
17 16 14 13 13 11 7 5 5 6 6 6 4 4 6 6 6 5 4 4 5 3 2 1 2 1 3 2 3 2 2 4 3 1 5 5 6 5 3 7 9 20 13
16 16 15 12 12 10 5 4 3 3 4 4 5 6 6 5 7 6 4 4 3 1 1 1 1 1 2 3 1 2 3 3 3 4 4 4 5 5 4 5 3 7 21
15 15 15 14 11 9 5 4 3 4 2 3 4 7 9 6 7 6 4 3 2 2 2 2 1 1 2 2 3 3 1 4 4 3 3 4 5 5 4 4 2 3 5
18 17 16 15 11 10 9 6 4 4 3 2 3 6 7 7 6 6 5 4 3 3 3 2 2 2 1 1 1 2 5 6 5 3 2 3 5 2 4 4 4 4 3
18 18 17 16 15 12 10 4 2 3 2 2 2 2 5 7 7 6 6 5 4 3 3 2 2 2 1 2 1 3 3 1 3 3 4 3 6 3 2 5 5 5 5
19 18 18 16 15 12 9 8 6 5 4 4 4 4 6 7 6 6 6 6 5 3 4 3 3 2 2 2 2 2 2 3 1 5 3 4 5 5 3 4 4 4 5
17 17 16 16 14 13 12 10 7 6 5 4 3 6 6 5 6 6 7 6 5 4 4 3 2 3 2 1 1 1 2 2 2 2 3 5 4 4 3 3 3 3 2
15 15 15 15 15 13 12 9 11 9 7 5 4 5 4 4 6 6 6 6 5 5 5 4 2 3 3 2 2 2 2 2 2 2 1 3 2 4 3 2 2 2 2
Wind_Direction
178 169 163 157 151 136 132 139 133 123 122 122 121 128 126 131 134 138 143 148 151 153 149 153 154 159 144 136 136 136 136 140 149 148 137 114 99 101 117 130 153 166 147
145 159 161 158 152 136 134 144 138 128 127 125 125 124 130 131 131 133 140 139 140 139 140 145 152 155 155 146 148 137 142 145 142 138 135 135 133 141 137 148 151 148 150
146 153 157 157 154 143 138 145 143 136 133 127 124 129 131 136 133 136 143 141 135 139 139 132 131 135 147 140 138 140 138 148 148 151 146 114 145 158 148 142 149 150 152
143 149 154 160 149 149 142 146 148 142 137 131 131 134 140 141 142 137 141 141 138 131 132 137 141 135 131 136 145 143 140 154 151 150 134 170 159 163 154 146 146 151 151
140 140 157 154 153 152 143 141 142 140 142 139 136 139 148 153 136 145 148 138 140 136 141 139 139 137 139 128 142 149 161 165 161 154 151 199 207 150 152 149 149 151 147
135 133 161 156 155 152 151 145 148 145 148 148 142 151 150 141 142 146 143 140 139 134 148 144 148 145 151 147 152 168 165 163 140 110 224 192 176 167 163 155 157 157 149
142 148 154 158 156 151 149 152 153 153 151 152 148 144 157 157 144 141 138 136 134 145 144 148 151 158 160 153 169 168 173 143 178 164 134 176 164 179 176 167 164 162 159
149 155 159 161 159 157 159 158 158 153 157 150 154 152 157 153 145 147 142 150 146 150 157 153 165 170 181 176 185 207 210 149 156 185 167 165 186 188 185 175 163 171 164
157 153 156 163 164 163 163 164 159 152 158 152 155 156 158 160 160 151 156 152 160 166 175 172 178 187 192 201 216 226 220 202 155 177 197 204 192 191 191 177 175 173 168
154 155 151 161 154 152 166 169 164 158 163 159 163 158 163 165 165 166 170 171 173 176 189 197 200 207 211 219 231 240 246 230 157 189 221 230 220 202 196 177 175 180 179
157 155 158 168 159 158 166 178 167 166 166 167 169 162 166 149 165 178 180 193 194 200 201 210 228 240 237 235 237 244 246 155 174 184 206 232 238 214 203 189 189 190 183
175 177 172 173 174 169 175 168 146 172 149 157 154 166 150 162 179 194 204 209 217 220 215 226 228 242 243 226 241 258 269 193 170 179 193 221 247 236 209 209 202 196 192
177 178 180 179 178 180 181 145 149 151 149 165 175 178 175 169 202 232 223 260 253 245 91 250 250 271 269 246 249 231 242 218 197 193 199 218 222 232 223 212 208 200 200
178 185 179 184 176 189 153 158 161 162 178 185 195 194 181 190 203 222 234 231 239 242 239 246 262 270 271 262 252 257 244 241 242 202 202 230 231 230 233 221 207 207 209
177 183 184 182 181 183 169 156 164 186 197 183 186 198 194 197 218 203 241 220 232 247 226 255 254 258 254 261 240 233 239 201 258 222 195 238 243 238 239 220 219 207 211
178 185 180 185 184 176 174 171 185 182 201 191 202 204 200 199 216 209 219 247 230 215 230 228 253 271 266 257 276 239 204 235 289 276 293 273 259 239 243 233 227 217 207
185 180 184 183 184 182 183 180 180 193 192 201 209 219 205 196 225 213 189 210 233 225 246 281 272 284 287 271 272 291 267 358 266 257 260 260 258 255 247 250 231 223 221
179 182 182 184 186 186 187 184 177 183 194 209 203 201 214 208 200 196 168 193 201 194 219 214 239 259 283 290 330 322 321 333 309 270 280 286 284 267 276 276 255 124 265
182 177 180 187 186 189 180 182 181 193 207 210 203 201 201 191 184 176 196 202 194 215 213 226 274 195 240 245 227 244 265 277 307 287 263 282 291 298 317 296 289 158 191
180 179 178 183 182 185 173 159 168 213 205 200 201 205 178 190 187 192 200 198 158 162 279 295 259 249 264 296 287 274 241 255 264 250 254 264 287 295 278 258 181 178 185
179 172 179 176 181 170 168 160 177 201 202 205 195 187 188 188 190 189 206 198 194 206 247 307 314 335 349 33 349 340 331 212 243 266 280 291 289 270 257 277 163 170 189
176 178 177 183 173 184 183 182 174 160 203 202 180 192 194 186 190 182 204 207 202 210 236 292 250 349 2 102 86 84 8 337 344 17 349 305 295 311 350 66 124 127 135
178 178 179 181 183 187 187 134 89 85 54 95 152 204 211 182 196 191 195 206 208 201 222 222 200 156 339 327 43 132 46 311 331 329 349 350 354 356 46 89 112 117 141
186 180 180 181 183 188 170 174 166 165 161 205 189 203 211 196 198 201 202 208 206 198 205 213 175 175 142 275 334 85 111 152 74 337 330 342 353 13 18 52 81 107 140
179 184 182 181 183 185 183 183 179 171 175 180 177 191 210 203 202 202 206 202 207 202 231 223 178 188 184 179 223 4 32 47 106 131 291 325 350 357 11 87 112 108 140
182 182 181 180 187 183 186 183 187 182 180 164 194 205 200 197 208 212 209 200 208 205 208 224 204 193 205 209 187 190 178 188 218 155 229 290 277 322 358 77 132 133 156